Location: Harwich
(41.7160°N, 69.9939°W)
Time: 01:31:54
(UTC+02:00)

AO-7 - Pass Details

Date: 19 September 2024
Orbit: 1440 x 1458 km, 102.0° (Epoch: 10 October)

Event Time Altitude Azimuth Distance (km) Brightness Sun altitude
Rises 01:32:32 0° 227° (SW) 4,542 ? -10.0°
Reaches altitude 10° 01:39:20 10° 267° (W) 3,578 ? -11.2°
Maximum altitude 01:40:23 10° 274° (W) 3,559 ? -11.4°
Drops below altitude 10° 01:41:26 10° 282° (WNW) 3,581 ? -11.6°
Sets 01:48:21 0° 321° (NW) 4,571 ? -12.9°
